Simultaneous Nadir Overpasses (SNOs) Predictions

Prediction of SNOs between AQUA and METOP-B Satellite Orbit:

Table of predicted SNOs for the next 14.0 days since TLE Epoch: 2/16/2013
Index Date (AQUA) Time (AQUA) Lat,Lon (AQUA) SZA (AQUA ) Date (METOP-B) Time (METOP-B) Lat,Lon (METOP-B) SZA (METOP-B ) Distance(km) Time Diff (sec)
1 02/16/2013 13:45:48 73.66, -31.90 85.91 02/16/2013 13:44:38 73.68, -31.97 85.95 3.36 70
2 02/16/2013 14:35:15 -73.72, 135.60 94.04 02/16/2013 14:35:18 -73.73, 135.48 94.02 3.57 3
3 02/16/2013 15:24:44 73.79, -56.92 86.03 02/16/2013 15:25:57 73.81, -57.01 86.04 3.11 73
4 02/19/2013 09:20:20 73.18, 35.44 84.40 02/19/2013 09:19:13 73.11, 33.15 84.45 74.03 67
5 02/19/2013 10:09:57 -73.75,-158.12 95.01 02/19/2013 10:09:42 -73.72,-158.13 95.03 2.92 15
6 02/19/2013 10:59:26 73.80, 9.39 85.05 02/19/2013 11:00:21 73.79, 9.36 85.03 1.43 55
7 02/22/2013 05:45:06 -73.70, -91.80 96.08 02/22/2013 05:44:06 -73.70, -91.77 96.06 1.43 60
8 02/22/2013 06:34:35 73.74, 75.74 83.96 02/22/2013 06:34:45 73.77, 75.72 83.99 3.60 10
9 02/22/2013 07:24:09 -74.12,-117.48 95.64 02/22/2013 07:25:19 -74.13,-116.08 95.71 42.84 70
10 02/25/2013 02:10:12 73.71, 141.90 82.88 02/25/2013 02:09:09 73.69, 141.94 82.88 2.28 63
11 02/25/2013 02:59:40 -73.76, -50.58 97.08 02/25/2013 02:59:49 -73.76, -50.56 97.08 0.70 9
12 02/25/2013 03:49:13 74.00, 116.53 83.17 02/25/2013 03:50:24 74.02, 117.39 83.15 26.60 71
13 02/27/2013 22:35:34 -73.07, 16.84 98.88 02/27/2013 22:34:28 -72.99, 14.10 98.82 89.23 66
14 02/27/2013 23:25:15 73.71,-176.87 81.80 02/27/2013 23:24:53 73.74,-176.88 81.83 3.16 22
15 02/28/2013 00:14:44 -73.79, -9.41 98.13 02/28/2013 00:15:33 -73.82, -9.36 98.12 2.83 49




NCC Satellite Simultaneous Nadir Overpasses (SNOs) Prediction Service
